Regional Weather Roundup
Issued by NWS Bismarck, ND

Home | Current Version | Previous Version | Text Only | Print | Product List | Glossary On
Versions: 1 2 3 4 5 6 7 8 9 10 11 12 13 14 15 16 17 18 19 20 21 22 23 24 25 26 27 28 29 30 31 32 33 34 35 36 37 38 39 40 41 42 43 44 45 46 47 48 49 50
000
ASUS43 KBIS 252210
RWRBIS

NWR BROADCAST TEXT
NATIONAL WEATHER SERVICE BISMARCK ND
400 PM CST SAT FEB 25 2017

NOTE: "FAIR" INDICATES FEW OR NO CLOUDS BELOW 12,000 FEET WITH NO
SIGNIFICANT WEATHER AND/OR OBSTRUCTIONS TO VISIBILITY.


CITY           SKY/WX    TMP DP  RH WIND       PRES   REMARKS
WILLISTON      LGT SNOW  27  24  89 SW7       29.68F FOG     WCI  19
MINOT          LGT SNOW  23  16  74 N7        29.74F WCI  15
MINOT AFB      NOT AVBL
BISMARCK       FAIR      29  20  69 SW6       29.79S
DICKINSON      PTSUNNY   29  16  58 W12       29.67F WCI  19
GARRISON         N/A     24  19  81 S5        29.73F WCI  18
HETTINGER ARPT CLOUDY    32  14  47 W15       29.73F
JAMESTOWN      CLOUDY    27  20  75 NW13      29.77S WCI  16
CARRINGTON     FAIR      25  19  80 NW10      29.78F WCI  15
HAZEN          MIX PCPN N/A N/A N/A SW12      29.76F
MANDAN         FAIR      25  19  80 SW7       29.77F WCI  17
RUGBY            N/A     18  14  86 W10       29.76F WCI   6
STANLEY        LGT SNOW  23  23 100 SW5       29.71F WCI  17
TIOGA          LGT SNOW  21  21 100 CALM      29.69F
WATFORD CITY   LGT SNOW  27  25  93 W8        29.69F WCI  18
$$

CITY           SKY/WX    TMP DP  RH WIND       PRES   REMARKS
GRAND FORKS    FAIR      30  17  58 N15       29.77S WCI  19
GRAND FORKS AF FAIR      30  18  62 NW12      29.77S
DEVILS LAKE    FAIR      23  13  65 W16       29.75F WCI  10
FARGO          CLOUDY    32  23  69 NW10      29.79F
CAVALIER         N/A     23  12  63 W17       29.77S WCI   9
GRAFTON        FAIR      25  16  68 W15       29.80S WCI  12
GWINNER        CLOUDY    30  28  93 NW12      29.79F
ROLLA          FAIR      16   9  73 N14       29.74S WCI   1
$$

CITY           SKY/WX    TMP DP  RH WIND       PRES   REMARKS
ABERDEEN       CLOUDY    38  17  42 W10       29.77F
MOBRIDGE       CLOUDY    33  23  66 N15       29.76R
BUFFALO          N/A     33  14  45 W20G28    29.65F
RAPID CITY     CLOUDY    30  22  72 VRB3      29.77F
GLASGOW        PTSUNNY   29  22  75 NW15G26   29.68F WCI  18
SIDNEY         FAIR      32  20  61 W14       29.68F
WOLF POINT     CLOUDY    30  22  72 N13       29.70F WCI  20
GLENDIVE       PTSUNNY   32  18  56 W18G25    29.69F
MILES CITY     PTSUNNY   35  15  44 NW21      29.71F
BAKER          LGT SNOW  30  22  72 W14       29.69F WCI  19
$$

CITY           SKY/WX    TMP DP  RH WIND       PRES   REMARKS
BILLINGS       FAIR      30  11  45 NW24G32   29.72F WCI  16
GREAT FALLS    PTSUNNY   34   5  29 W22G33    29.67F
REGINA         FLURRIES  16   9  73 NW8       29.73F WCI   5
ESTEVAN        LGT SNOW  16  12  86 N5        29.74F FOG     WCI   9
$$




USA.gov is the U.S. government's official web portal to all federal, state and local government web resources and services.